Findlay, OH

8:24 AM EST on December 10, 2019 (GMT -0500)
Findlay

Weather History for KFDY - October, 2019

Change the Weather History Date:

Saturday, October 12, 2019

  Actual Average Record
Temperature  
Mean Temperature 46 °F -  
Max Temperature 54 °F 63 °F 84 °F (2008)
Min Temperature 37 °F 43 °F 30 °F (1957)
Degree Days  
Heating Degree Days 20    
Moisture  
Dew Point 35 °F    
Average Humidity 69    
Maximum Humidity 93    
Minimum Humidity 35    
Precipitation  
Precipitation 0.10 in - - ()
Sea Level Pressure  
Sea Level Pressure 30.03 in    
Wind  
Wind Speed 15 mph (WSW)    
Max Wind Speed 22 mph    
Max Gust Speed 28 mph    
Visibility 9 miles    
Events Rain    
Averages and records for this station are not official NWS values.
T = Trace of Precipitation, MM = Missing Value Source: NWS Daily Summary

Daily Weather History Graph

Daily Weather History Graph

Search for Another Location

Airport or City:

Astronomy

Oct. 12, 2019 Rise Set
Actual Time 7:42 AM EDT 6:59 PM EDT
Civil Twilight 7:15 AM EDT 7:26 PM EDT
Nautical Twilight 6:43 AM EDT 7:58 PM EDT
Astronomical Twilight 6:11 AM EDT 8:30 PM EDT
Moon 6:55 PM EDT (10/12) 6:17 AM EDT (10/12)
Length of Visible Light 12h 11m
Length of Day
11h 16m
Waxing Gibbous, 99% of the Moon is Illuminated
Oct 12
Waxing Gibbous
Oct 13
Full
Oct 21
Last Quarter
Oct 27
New
Nov 4
First Quarter

Hourly Weather History & Observations

Time (EDT) Temp. Windchill Dew Point Humidity Pressure Visibility Wind Dir Wind Speed Gust Speed Precip Events Conditions
12:13 AM 48.9 °F - 46.9 °F 93% 29.99 in 7.0 mi West 16.1 mph - 0.01 in Rain Light Rain
12:20 AM 48.9 °F - 46.0 °F 90% 29.99 in 9.0 mi West 15.0 mph - 0.02 in Rain Light Rain
12:33 AM 48.0 °F - 44.1 °F 86% 29.99 in 7.0 mi West 20.7 mph 26.5 mph 0.03 in Rain Light Rain
12:43 AM 46.9 °F - 43.0 °F 86% 29.99 in 5.0 mi West 21.9 mph 26.5 mph 0.04 in Rain Rain
12:53 AM 46.0 °F 39.0 °F 42.1 °F 86% 29.99 in 7.0 mi West 17.3 mph 27.6 mph 0.05 in Rain Rain
1:32 AM 46.9 °F - 44.1 °F 90% 30.00 in 8.0 mi West 15.0 mph - 0.03 in Rain Light Rain
1:40 AM 46.0 °F 40.2 °F 43.0 °F 89% 30.00 in 7.0 mi West 12.7 mph - 0.04 in Rain Light Rain
1:53 AM 46.0 °F 40.2 °F 43.0 °F 89% 29.98 in 6.0 mi West 12.7 mph - 0.05 in Rain Light Rain
1:55 AM 46.0 °F 39.6 °F 43.0 °F 89% 30.00 in 6.0 mi West 15.0 mph 21.9 mph 0.00 in Rain Light Rain
2:30 AM 45.0 °F 38.2 °F 41.0 °F 86% 30.01 in 10.0 mi West 15.0 mph - 0.00 in Rain Light Rain
2:53 AM 45.0 °F 37.6 °F 41.0 °F 86% 30.00 in 10.0 mi West 17.3 mph - 0.00 in Rain Light Rain
3:02 AM 45.0 °F 37.6 °F 39.9 °F 82% 30.01 in 10.0 mi West 17.3 mph - 0.00 in   Overcast
3:53 AM 44.1 °F 37.7 °F 39.0 °F 82% 30.00 in 10.0 mi West 12.7 mph - 0.00 in   Overcast
4:38 AM 41.0 °F 32.8 °F 35.1 °F 79% 30.03 in 10.0 mi West 16.1 mph - N/A   Scattered Clouds
4:53 AM 39.9 °F 32.5 °F 35.1 °F 83% 30.02 in 10.0 mi West 12.7 mph - N/A   Clear
5:53 AM 37.9 °F 30.9 °F 32.0 °F 79% 30.05 in 10.0 mi West 10.4 mph - N/A   Clear
6:53 AM 37.0 °F 32.4 °F 32.0 °F 82% 30.06 in 10.0 mi WSW 5.8 mph - N/A   Clear
7:53 AM 37.0 °F 31.6 °F 30.9 °F 79% 30.07 in 10.0 mi SW 6.9 mph - N/A   Clear
8:53 AM 39.0 °F 31.8 °F 32.0 °F 76% 30.10 in 10.0 mi WSW 11.5 mph - N/A   Clear
9:53 AM 42.1 °F 34.2 °F 30.9 °F 65% 30.11 in 10.0 mi West 16.1 mph - N/A   Clear
10:53 AM 46.0 °F 39.0 °F 30.0 °F 54% 30.12 in 10.0 mi WSW 17.3 mph 25.3 mph N/A   Clear
11:53 AM 46.9 °F - 30.0 °F 52% 30.11 in 10.0 mi WSW 18.4 mph 23.0 mph N/A   Clear
12:53 PM 50.0 °F - 30.0 °F 46% 30.10 in 10.0 mi WSW 11.5 mph 23.0 mph N/A   Clear
1:53 PM 51.1 °F - 28.0 °F 41% 30.08 in 10.0 mi WSW 15.0 mph 24.2 mph N/A   Clear
2:53 PM 52.0 °F - 27.0 °F 38% 30.06 in 10.0 mi WSW 17.3 mph 24.2 mph N/A   Clear
3:53 PM 54.0 °F - 27.0 °F 35% 30.05 in 10.0 mi WSW 16.1 mph 21.9 mph N/A   Clear
4:53 PM 54.0 °F - 27.0 °F 35% 30.04 in 10.0 mi SW 13.8 mph 21.9 mph N/A   Clear
5:53 PM 53.1 °F - 27.0 °F 37% 30.04 in 10.0 mi SSW 15.0 mph 23.0 mph N/A   Clear
6:53 PM 50.0 °F - 28.9 °F 44% 30.02 in 10.0 mi South 12.7 mph - N/A   Clear
7:53 PM 45.0 °F 39.7 °F 30.9 °F 58% 30.02 in 10.0 mi South 10.4 mph - N/A   Clear
8:53 PM 46.0 °F 40.6 °F 30.9 °F 56% 30.02 in 10.0 mi South 11.5 mph - N/A   Clear
9:53 PM 46.9 °F - 30.9 °F 54% 30.01 in 10.0 mi South 12.7 mph - N/A   Clear
10:53 PM 46.9 °F - 30.9 °F 54% 30.00 in 10.0 mi South 12.7 mph - N/A   Clear
11:53 PM 46.0 °F 41.4 °F 30.9 °F 56% 30.00 in 10.0 mi SSW 9.2 mph - N/A   Clear